Location: Peebles
(55.6412°N, 3.1714°W)
Time: 20:49:07
(UTC+01:00)

deb AGENA D - Pass Details

Date: 04 July 2022
Orbit: 951 x 1019 km, 99.8° (Epoch: 17 August)

Event Time Altitude Azimuth Distance (km) Brightness Sun altitude
Exits shadow 01:38:33 - 152° (SSE) 2,920 ? -11.3°
Reaches altitude 10° 01:38:51 10° 152° (SSE) 2,803 ? -11.3°
Maximum altitude 01:45:11 78° 68° (ENE) 1,048 ? -11.2°
Drops below altitude 10° 01:51:31 10° 343° (NNW) 2,811 ? -11.1°
Sets 01:54:00 0° 343° (NNW) 3,760 ? -11.1°
